This demonstration page uses our WeatherBlox Daily Observations layout. Learn more.

Left ArrowRight Arrow

Hourly Observations for October 14, 2015

Temp ( °F °C ) Dew Point ( °F °C ) Humidity (%) Winds ( mph kmh ) Pressure ( in mb ) Visibility ( mi km ) Precip ( " mm )
12:15 am 00:15 Clear 46 7.5 39 4.1 79 79 SW 6 9 30.06 1018 10 16 N/A
12:35 am 00:35 Clear 44 6.9 39 4 82 82 W 5 7 30.09 1019 10 16 N/A
12:55 am 00:55 Clear 45 7.4 40 4.3 81 81 W 5 7 30.09 1019 10 16 N/A
1:15 am 01:15 Clear 43 6 38 3.6 85 85 WNW 3 6 30.12 1020 10 16 N/A
1:35 am 01:35 Clear 43 6.2 39 3.9 85 85 WNW 5 7 30.12 1020 10 16 N/A
1:55 am 01:55 Clear 44 6.6 40 4.2 85 85 NW 5 7 30.12 1020 10 16 N/A
2:15 am 02:15 Clear 42 5.8 39 3.7 87 87 Calm 30.12 1020 10 16 N/A
2:35 am 02:35 Clear 43 5.9 39 3.9 87 87 NNW 3 6 30.12 1020 10 16 N/A
2:55 am 02:55 Clear 42 5.7 38 3.5 86 86 Calm 30.12 1020 10 16 N/A
3:15 am 03:15 Clear 40 4.7 37 3 89 89 W 5 7 30.12 1020 10 16 N/A
3:35 am 03:35 Clear 40 4.3 37 3 91 91 NW 5 7 30.15 1021 10 16 N/A
3:55 am 03:55 Clear 40 4.7 38 3.3 91 91 N 3 6 30.12 1020 10 16 N/A
4:15 am 04:15 Clear 40 4.7 38 3.2 90 90 Calm 30.12 1020 10 16 N/A
4:35 am 04:35 Clear 40 4.6 37 2.9 89 89 Calm 30.12 1020 10 16 N/A
4:55 am 04:55 Clear 39 4 37 2.5 90 90 Calm 30.15 1021 10 16 N/A
5:15 am 05:15 Clear 39 4 37 2.5 90 90 WNW 3 6 30.15 1021 10 16 N/A
5:35 am 05:35 Clear 39 4 36 2.4 89 89 W 5 7 30.15 1021 10 16 N/A
5:55 am 05:55 Clear 39 3.8 37 2.5 91 91 W 6 9 30.15 1021 10 16 N/A
6:15 am 06:15 Clear 38 3.2 35 1.9 91 91 WNW 5 7 30.18 1022 10 16 N/A
6:35 am 06:35 Clear 39 3.8 37 2.5 91 91 W 6 9 30.18 1022 10 16 N/A
6:55 am 06:55 Clear 39 4.1 37 2.9 92 92 W 6 9 30.18 1022 10 16 0.00 0.00
7:15 am 07:15 Clear 38 3.6 36 2.4 92 92 WNW 5 7 30.18 1022 10 16 N/A
7:35 am 07:35 Clear 39 3.8 37 2.7 93 93 Calm 30.18 1022 10 16 N/A
7:55 am 07:55 Sunny 38 3.5 36 2.4 93 93 N 3 6 30.18 1022 10 16 N/A
8:15 am 08:15 Sunny 38 3.5 36 2.4 93 93 Calm 30.18 1022 10 16 N/A
8:35 am 08:35 Sunny 40 4.3 38 3.2 93 93 Calm 30.18 1022 10 16 N/A
8:55 am 08:55 Sunny 42 5.6 40 4.5 93 93 Calm 30.15 1021 10 16 N/A
9:15 am 09:15 Sunny 45 7.3 42 5.6 89 89 Calm 30.18 1022 10 16 N/A
9:35 am 09:35 Sunny 48 8.7 43 6.2 84 84 W 3 6 30.15 1021 7 11 N/A
9:55 am 09:55 Sunny 50 10.2 45 7 81 81 Calm 30.15 1021 10 16 N/A
10:15 am 10:15 Sunny 54 12.4 44 6.9 69 69 Calm 30.12 1020 10 16 N/A
10:35 am 10:35 Hazy 57 14 42 5.5 57 57 Calm 30.12 1020 5 8 N/A
10:55 am 10:55 Sunny 60 15.6 40 4.3 47 47 SE 7 11 30.09 1019 10 16 N/A
11:15 am 11:15 Sunny 62 16.7 39 3.9 43 43 SSE 5 7 30.09 1019 10 16 N/A
11:35 am 11:35 Sunny 64 17.6 38 3.5 39 39 SSE 8 13 30.06 1018 10 16 N/A
11:55 am 11:55 Sunny 66 18.9 39 3.7 37 37 SE 5 7 30.06 1018 10 16 N/A
12:15 pm 12:15 Sunny 68 19.8 37 3 33 33 SSE 8 13 30.06 1018 10 16 N/A
12:35 pm 12:35 Sunny 69 20.3 38 3.1 32 32 SSE 9 15 30.06 1018 10 16 N/A
12:55 pm 12:55 Sunny 70 21 37 2.5 30 30 SSE 5 7 30.06 1018 10 16 N/A
1:15 pm 13:15 Sunny 71 21.6 38 3.3 30 30 S 7 11 30.00 1016 10 16 N/A
1:35 pm 13:35 Sunny 71 21.9 37 3 29 29 SSE 9 15 30.00 1016 10 16 N/A
1:55 pm 13:55 Sunny 72 22 37 3 29 29 S 10 17 30.00 1016 10 16 N/A
2:15 pm 14:15 Sunny 72 22.2 38 3.3 29 29 SSE 8 13 30.00 1016 10 16 N/A
2:35 pm 14:35 Sunny 73 22.5 39 4 30 30 SSW 14 22 29.97 1015 10 16 N/A
2:55 pm 14:55 Sunny 72 22.4 38 3.1 28 28 S 15 24 29.97 1015 10 16 N/A
3:15 pm 15:15 Sunny 73 22.5 38 3.5 29 29 S 14 22 29.94 1014 10 16 N/A
3:35 pm 15:35 Sunny 73 22.5 38 3.2 28 28 SSW 13 20 29.94 1014 10 16 N/A
3:55 pm 15:55 Sunny 73 23 38 3.3 28 28 S 13 20 29.94 1014 10 16 N/A
4:15 pm 16:15 Sunny 74 23.3 38 3.1 27 27 S 13 20 29.94 1014 10 16 N/A
4:35 pm 16:35 Sunny 74 23.2 37 2.8 26 26 S 13 20 29.94 1014 10 16 N/A
4:55 pm 16:55 Sunny 74 23.1 37 2.7 26 26 S 12 19 29.94 1014 10 16 N/A
5:15 pm 17:15 Sunny 74 23.1 37 3 27 27 S 9 15 29.94 1014 10 16 N/A
5:35 pm 17:35 Sunny 73 22.6 37 2.8 27 27 SSW 12 19 29.94 1014 10 16 N/A
5:55 pm 17:55 Sunny 72 22.1 38 3.5 30 30 S 9 15 29.94 1014 10 16 N/A
6:15 pm 18:15 Sunny 69 20.7 40 4.2 34 34 S 6 9 29.94 1014 10 16 N/A
6:35 pm 18:35 Sunny 68 20.1 39 3.8 34 34 SSE 5 7 29.97 1015 10 16 N/A
6:55 pm 18:55 Sunny 65 18.5 39 3.9 38 38 SE 6 9 29.97 1015 10 16 N/A
7:15 pm 19:15 Clear 62 16.9 39 3.7 42 42 ESE 5 7 29.97 1015 10 16 N/A
7:35 pm 19:35 Clear 61 16.1 39 3.9 44 44 ESE 6 9 30.00 1016 10 16 N/A
7:55 pm 19:55 Clear 60 15.8 38 3.5 44 44 ESE 6 9 30.00 1016 10 16 N/A
8:15 pm 20:15 Clear 55 12.6 40 4.4 58 58 ESE 5 7 30.03 1017 10 16 N/A
8:35 pm 20:35 Clear 52 11.2 40 4.5 64 64 ESE 6 9 30.03 1017 10 16 N/A
8:55 pm 20:55 Clear 55 12.6 39 4.1 56 56 ESE 5 7 30.03 1017 10 16 N/A
9:15 pm 21:15 Clear 54 12.3 39 4 57 57 SE 3 6 30.03 1017 10 16 N/A
9:35 pm 21:35 Clear 55 12.9 38 3.6 53 53 Calm 30.03 1017 7 11 N/A
9:55 pm 21:55 Clear 52 11.2 40 4.3 63 63 SE 3 6 30.03 1017 10 16 N/A
10:15 pm 22:15 Clear 51 10.3 40 4.2 66 66 ENE 6 9 30.06 1018 10 16 N/A
10:35 pm 22:35 Clear 49 9.7 40 4.2 69 69 NE 5 7 30.09 1019 10 16 N/A
10:55 pm 22:55 Clear 48 8.7 39 4 73 73 ENE 5 7 30.09 1019 10 16 N/A
11:15 pm 23:15 Clear 48 9 39 4 71 71 Calm 30.09 1019 10 16 N/A
11:35 pm 23:35 Clear 48 8.8 39 4.1 73 73 ENE 3 6 30.09 1019 10 16 N/A
11:55 pm 23:55 Clear 48 9.1 39 4 71 71 ENE 5 7 30.09 1019 10 16 N/A

Powered by AerisWeather